モーリー-アタール彗星

C/2021 X1 ( Maury-Attard )

English version
Home page
Updated on March 4, 2023

---------------------------------------------------------------------

・ プロフィール

発見日 2021年12月2日
発見光度 19.0等
発見者 Alain Maury and Georges Attard (Maury, Attard, Parrott (MAP) survey project)

・ 写真集

・ 軌道要素

Epoch 2023 Feb. 25.0 TT = JDT 2460000.5
T 2023 May 27.47819 TT                                  Rudenko
q   3.2336083            (2000.0)            P               Q
z  -0.0000609      Peri.  334.62883     +0.82777353     +0.54856100
 +/-0.0000009      Node    10.58505     +0.55811186     -0.78357314
e   1.0001968      Incl.  140.12128     -0.05746421     +0.29170868
>From 1019 observations 2021 Oct. 22-2022 Dec. 22, mean residual 0".4.

・ 星図

・ 光度変化

        m1 = 6.5 + 5 logΔ + 10.0 log r

---------------------------------------------------------------------

軌道要素はM.P.E.C. 2022-Y114に掲載されたものです。
星図はステラナビゲータ Ver.10 (アストロアーツ) で作成したものです。
光度グラフはComet for Windowsで作成したものです。

---------------------------------------------------------------------

Copyright(C) Seiichi Yoshida (comet@aerith.net). All rights reserved.